"Pseudo-MPEC" for ZTF02V6

Created 2019 Feb 15 22:18:12 UT using Find_Orb

Click here for an explanation of pseudo-MPECs

 
 Astrometry: 
     ZTF02V6  C2019 02 08.24417 10 54 45.65 -09 06 34.8    ~292I 20.2 rUNEOCPI41
     ZTF02V6  C2019 02 08.25304 10 54 45.95 -09 06 34.3    ~292I 20.0 rUNEOCPI41
     ZTF02V6  C2019 02 08.27972 10 54 46.79 -09 06 33.6    ~292I 20.3 rUNEOCPI41
     ZTF02V6  C2019 02 08.30981 10 54 47.73 -09 06 32.8    ~292I 20.3 rUNEOCPI41

Station data:
(I41) Palomar Mountain--ZTF  (N33.357340 W116.859780)  US/California. 1.2-m
   f/2.44 Oschin Schmidt + CCD.

Orbital elements:  ZTF02V6
   Perihelion 2019 Jan 10.091807 +/- 42.2 TT =  2:12:12 (JD 2458493.591807)
Epoch 2019 Feb  8.0 TT = JDT 2458522.5   Earth MOID: 0.2524   Ma: 0.0411
M   7.95313379 +/- 26               (J2000 ecliptic)          AutoNEOCP
n   0.27511694 +/- 0.303            Peri.  263.74646 +/- 120
a   2.34130406 +/- 1.72             Node   216.81726 +/- 32
e   0.4766297 +/- 0.25              Incl.    3.88248 +/- 7
P   3.58                   H 21.3   G  0.15   U 11.9  SR
q 1.22536891 +/- 0.469    Q 3.45723922 +/- 50.4
From 4 observations 2019 Feb. 8 (94.5 min); mean residual 0".10
Residuals in arcseconds: 
190208 I41  .02-  .15-    190208 I41  .13-  .09+    
190208 I41  .10+  .13+    190208 I41  .06+  .07-    

Ephemerides (geocentric):
Date (UTC) HH   RA              Dec         delta   r     elong  mag " sig PA
---- -- -- --  -------------   -----------  ------ ------ -----  --- ---- ---
2019 02 15 22  10 58 29.169   -08 41 11.37  .32443 1.2864 153.6 20.4  45d 173
2019 02 15 23  10 58 30.028   -08 40 57.20  .32449 1.2866 153.6 20.4  45d 173
2019 02 16 00  10 58 30.884   -08 40 42.97  .32455 1.2867 153.6 20.4  45d 173
2019 02 16 01  10 58 31.736   -08 40 28.67  .32461 1.2868 153.7 20.4  45d 173
2019 02 16 02  10 58 32.585   -08 40 14.32  .32467 1.2869 153.7 20.4  45d 173
2019 02 16 03  10 58 33.430   -08 39 59.91  .32472 1.2871 153.8 20.4  45d 173
2019 02 16 04  10 58 34.271   -08 39 45.44  .32478 1.2872 153.8 20.4  45d 173
2019 02 16 05  10 58 35.110   -08 39 30.91  .32484 1.2873 153.8 20.4  46d 173
2019 02 16 06  10 58 35.944   -08 39 16.32  .32490 1.2875 153.9 20.4  46d 173
2019 02 16 07  10 58 36.776   -08 39 01.67  .32496 1.2876 153.9 20.4  46d 173
2019 02 16 08  10 58 37.604   -08 38 46.96  .32502 1.2877 153.9 20.4  46d 173
2019 02 16 09  10 58 38.428   -08 38 32.20  .32508 1.2879 154.0 20.4  46d 173
2019 02 16 10  10 58 39.250   -08 38 17.37  .32514 1.2880 154.0 20.4  47d 173
2019 02 16 11  10 58 40.067   -08 38 02.49  .32520 1.2882 154.0 20.4  47d 173
2019 02 16 12  10 58 40.882   -08 37 47.54  .32526 1.2883 154.1 20.4  47d 173
2019 02 16 13  10 58 41.693   -08 37 32.54  .32532 1.2884 154.1 20.4  47d 173
2019 02 16 14  10 58 42.501   -08 37 17.48  .32538 1.2886 154.2 20.4  48d 173
2019 02 16 15  10 58 43.305   -08 37 02.36  .32544 1.2887 154.2 20.4  48d 173
2019 02 16 16  10 58 44.106   -08 36 47.19  .32550 1.2888 154.2 20.4  48d 173
2019 02 16 17  10 58 44.904   -08 36 31.95  .32556 1.2890 154.3 20.4  49d 173
2019 02 16 18  10 58 45.698   -08 36 16.66  .32563 1.2891 154.3 20.4  49d 173
2019 02 16 19  10 58 46.489   -08 36 01.31  .32569 1.2892 154.3 20.4  49d 173
2019 02 16 20  10 58 47.276   -08 35 45.90  .32575 1.2894 154.4 20.4  50d 173
2019 02 16 21  10 58 48.061   -08 35 30.43  .32581 1.2895 154.4 20.4  50d 173
2019 02 16 22  10 58 48.842   -08 35 14.91  .32587 1.2896 154.4 20.4  51d 173
2019 02 16 23  10 58 49.619   -08 34 59.33  .32593 1.2898 154.5 20.4  51d 173
2019 02 17 00  10 58 50.394   -08 34 43.69  .32600 1.2899 154.5 20.4  51d 173
2019 02 17 01  10 58 51.165   -08 34 27.99  .32606 1.2900 154.6 20.4  52d 173
2019 02 17 02  10 58 51.933   -08 34 12.23  .32612 1.2902 154.6 20.4  52d 173
2019 02 17 03  10 58 52.697   -08 33 56.42  .32619 1.2903 154.6 20.4  52d 173
2019 02 17 04  10 58 53.459   -08 33 40.55  .32625 1.2905 154.7 20.4  53d 173
2019 02 17 05  10 58 54.217   -08 33 24.63  .32631 1.2906 154.7 20.4  53d 173
2019 02 17 06  10 58 54.971   -08 33 08.64  .32638 1.2907 154.7 20.4  53d 173
2019 02 17 07  10 58 55.723   -08 32 52.60  .32644 1.2909 154.8 20.4  53d 173
2019 02 17 08  10 58 56.471   -08 32 36.50  .32650 1.2910 154.8 20.4  53d 173
2019 02 17 09  10 58 57.216   -08 32 20.35  .32657 1.2911 154.9 20.4  54d 173
2019 02 17 10  10 58 57.958   -08 32 04.14  .32663 1.2913 154.9 20.4  54d 173
2019 02 17 11  10 58 58.696   -08 31 47.87  .32670 1.2914 154.9 20.4  54d 173
2019 02 17 12  10 58 59.432   -08 31 31.55  .32676 1.2915 155.0 20.4  54d 173
2019 02 17 13  10 59 00.164   -08 31 15.17  .32683 1.2917 155.0 20.4  54d 173
2019 02 17 14  10 59 00.893   -08 30 58.73  .32689 1.2918 155.0 20.4  54d 173
2019 02 17 15  10 59 01.619   -08 30 42.24  .32696 1.2920 155.1 20.4  55d 173
2019 02 17 16  10 59 02.341   -08 30 25.69  .32702 1.2921 155.1 20.4  55d 173
2019 02 17 17  10 59 03.061   -08 30 09.08  .32709 1.2922 155.1 20.4  55d 173
2019 02 17 18  10 59 03.777   -08 29 52.42  .32715 1.2924 155.2 20.4  55d 173
2019 02 17 19  10 59 04.490   -08 29 35.71  .32722 1.2925 155.2 20.4  55d 173
2019 02 17 20  10 59 05.200   -08 29 18.93  .32728 1.2926 155.3 20.4  55d 173
2019 02 17 21  10 59 05.906   -08 29 02.11  .32735 1.2928 155.3 20.4  55d 173